WetterOnline ( http://www.wetteronline.de )

Wetter aktuell Bremen

Aktuelles Wetter: Bremervörde (5m)

6-stündlich | Neueste Meldungen
Ortszeit Temperatur Wetter
Fr, 19.10. 8:00 2.0° C bedeckt
Fr, 19.10. 2:00 4.8° C Nebel
Do, 18.10. 20:00 10.1° C wolkig
Do, 18.10. 14:00 13.5° C bedeckt
Do, 18.10. 8:00 9.5° C Nebel
Do, 18.10. 2:00 11.5° C Nebel
Mi, 17.10. 20:00 14.4° C bedeckt
Mi, 17.10. 14:00 21.8° C wolkig
Ortszeit Temperatur Wetter
Fr, 19.10. 8:00 2.0° C bedeckt
Fr, 19.10. 7:50 2.0° C bedeckt
Fr, 19.10. 7:40 1.7° C bedeckt
Fr, 19.10. 7:30 2.0° C bedeckt
Fr, 19.10. 7:20 2.0° C bedeckt
Fr, 19.10. 7:10 2.1° C Nebel
Fr, 19.10. 7:00 2.0° C Nebel
Fr, 19.10. 6:30 1.7° C Nebel
Fr, 19.10. 6:00 1.2° C Nebel
Fr, 19.10. 5:30 1.8° C Nebel
Fr, 19.10. 5:00 2.2° C Nebel
Ortszeit Relative Feuchte Sichtweite
Fr, 19.10. 8:00 99% 3.2 km
Fr, 19.10. 2:00 99% 0.8 km
Do, 18.10. 20:00 84% 40 km
Do, 18.10. 14:00 84% 17 km
Do, 18.10. 8:00 100% 100 m
Do, 18.10. 2:00 100% <100 m
Mi, 17.10. 20:00 90% 3.6 km
Mi, 17.10. 14:00 54% 35 km
Ortszeit Relative Feuchte Sichtweite
Fr, 19.10. 8:00 99% 3.2 km
Fr, 19.10. 7:50 99% -
Fr, 19.10. 7:40 99% -
Fr, 19.10. 7:30 98% 6 km
Fr, 19.10. 7:20 98% -
Fr, 19.10. 7:10 98% -
Fr, 19.10. 7:00 99% 0.3 km
Fr, 19.10. 6:30 100% 100 m
Fr, 19.10. 6:00 99% 0.2 km
Fr, 19.10. 5:30 99% 100 m
Fr, 19.10. 5:00 100% <100 m
Ortszeit Niederschlagsmenge Niederschlagsart
Fr, 19.10. 8:00 0.0 l/m2 in 12 Std. -
Fr, 19.10. 2:00 0.0 l/m2 in 6 Std. -
Do, 18.10. 20:00 0.7 l/m2 in 12 Std. -
Do, 18.10. 14:00 0.7 l/m2 in 6 Std. Regen
Do, 18.10. 8:00 0.1 l/m2 in 12 Std. -
Do, 18.10. 2:00 0.0 l/m2 in 6 Std. -
Mi, 17.10. 20:00 0.0 l/m2 in 12 Std. -
Mi, 17.10. 14:00 0.0 l/m2 in 6 Std. -
Ortszeit Niederschlagsmenge Niederschlagsart
Fr, 19.10. 8:00 0.0 l/m2 in 1 Std. -
Fr, 19.10. 7:50 keine Meldung -
Fr, 19.10. 7:40 keine Meldung -
Fr, 19.10. 7:30 0.0 l/m2 in 1 Std. -
Fr, 19.10. 7:20 keine Meldung -
Fr, 19.10. 7:10 keine Meldung -
Fr, 19.10. 7:00 0.0 l/m2 in 1 Std. -
Fr, 19.10. 6:30 0.0 l/m2 in 1 Std. -
Fr, 19.10. 6:00 0.0 l/m2 in 1 Std. -
Fr, 19.10. 5:30 0.0 l/m2 in 1 Std. -
Fr, 19.10. 5:00 0.0 l/m2 in 1 Std. -
Ortszeit Stärke Spitze Richtung
km/h Bft. km/h Grad Sektor
Fr, 19.10. 8:00 0 0 7 - -
Fr, 19.10. 2:00 4 1 11 10° N
Do, 18.10. 20:00 9 2 26 340° N
Do, 18.10. 14:00 17 3 28 360° N
Do, 18.10. 8:00 4 1 14 240° SW
Do, 18.10. 2:00 4 1 14 280° W
Mi, 17.10. 20:00 7 2 25 340° N
Mi, 17.10. 14:00 9 2 17 210° SW
Ortszeit Stärke Spitze Richtung
km/h Bft. km/h Grad Sektor
Fr, 19.10. 8:00 0 0 4 - -
Fr, 19.10. 7:50 0 0 - 350° N
Fr, 19.10. 7:40 0 0 - - -
Fr, 19.10. 7:30 0 0 0 - -
Fr, 19.10. 7:20 0 0 - - -
Fr, 19.10. 7:10 0 0 - - -
Fr, 19.10. 7:00 0 0 0 - -
Fr, 19.10. 6:30 0 0 0 - -
Fr, 19.10. 6:00 0 0 0 - -
Fr, 19.10. 5:30 0 0 0 - -
Fr, 19.10. 5:00 0 0 4 - -
Ortszeit Untergrenze Bedeckung Gattung
total tief tief mittel hoch
Fr, 19.10. 8:00 990 m 8/8 8/8 - - -
Fr, 19.10. 2:00 - 0/8 0/8 - - -
Do, 18.10. 20:00 1050 m 6/8 6/8 - - -
Do, 18.10. 14:00 330 m 8/8 8/8 - - -
Do, 18.10. 8:00 <30 m 8/8 8/8 - - -
Do, 18.10. 2:00 <30 m 8/8 8/8 - - -
Mi, 17.10. 20:00 6300 m 8/8 8/8 - - -
Mi, 17.10. 14:00 6000 m 8/8 8/8 - - -
Ortszeit Bedeckungsgrad in Achtel und Wolkenuntergrenze
Fr, 19.10. 8:00 8(990m)
Fr, 19.10. 7:50 8(990m)
Fr, 19.10. 7:40 8(1020m)
Fr, 19.10. 7:30 8(1020m)
Fr, 19.10. 7:20 8(1020m)
Fr, 19.10. 7:10 8(1020m)
Fr, 19.10. 7:00 8(1020m)
Fr, 19.10. 6:30 4(1050m)
Fr, 19.10. 6:00 1(1050m)
Fr, 19.10. 5:30 1(1050m)
Fr, 19.10. 5:00 keine Wolken
Ortszeit Luftdruck NN (hPa) Tendenz (hPa in 3 Std.)
Fr, 19.10. 8:00 1027 + 0,4
Fr, 19.10. 2:00 1027 - 0,4
Do, 18.10. 20:00 1026 + 1,4
Do, 18.10. 14:00 1024 + 1,0
Do, 18.10. 8:00 1022 + 0,6
Do, 18.10. 2:00 1021 + 0,4
Mi, 17.10. 20:00 1020 + 1,4
Mi, 17.10. 14:00 1019 - 0,5
Ortszeit Luftdruck NN (hPa) Tendenz (hPa in 3 Std.)
Fr, 19.10. 8:00 1027 + 0,4
Fr, 19.10. 7:50 1027 keine Meldung
Fr, 19.10. 7:40 1027 keine Meldung
Fr, 19.10. 7:30 1027 + 0,1
Fr, 19.10. 7:20 1027 keine Meldung
Fr, 19.10. 7:10 1027 keine Meldung
Fr, 19.10. 7:00 1027 + 0,2
Fr, 19.10. 6:30 1027 + 0,4
Fr, 19.10. 6:00 1027 + 0,1
Fr, 19.10. 5:30 1027 + 0,1
Fr, 19.10. 5:00 1027 - 0,1
Ortszeit Schneehöhe (cm)
Fr, 19.10. 8:00 -
Fr, 19.10. 2:00 -
Do, 18.10. 20:00 -
Do, 18.10. 14:00 -
Do, 18.10. 8:00 -
Do, 18.10. 2:00 -
Mi, 17.10. 20:00 -
Mi, 17.10. 14:00 -
Ortszeit Schneehöhe (cm)
Fr, 19.10. 8:00 -
Fr, 19.10. 7:50 -
Fr, 19.10. 7:40 -
Fr, 19.10. 7:30 -
Fr, 19.10. 7:20 -
Fr, 19.10. 7:10 -
Fr, 19.10. 7:00 -
Fr, 19.10. 6:30 -
Fr, 19.10. 6:00 -
Fr, 19.10. 5:30 -
Fr, 19.10. 5:00 -
Link zu dieser Seite / Seite empfehlen

Das Wetter in ...